パンスターズ彗星

P/2022 C2 ( PanSTARRS )

English version
Home page
Updated on December 11, 2022

---------------------------------------------------------------------

・ プロフィール

発見日 2022年2月2日
発見光度 20.8等
発見者 Pan-STARRS 2 telescope (Haleakala)

・ 写真集

・ 軌道要素

Epoch 2022 Aug. 9.0 TT = JDT 2459800.5
T 2022 Aug. 6.59226 TT                                  Rudenko
q   3.3704172            (2000.0)            P               Q
n   0.06628518     Peri.   89.30182     -0.70170009     +0.70195674
a   6.0467926      Node   135.27194     -0.70298098     -0.65428580
e   0.4426107      Incl.    9.97968     -0.11590824     -0.28136601
P  14.9
From 220 observations 2022 Feb. 2-July 28, mean residual 0".4.

・ 光度変化

        m1 = 5.5 + 5 logΔ + 20.0 log r

---------------------------------------------------------------------

軌道要素はM.P.E.C. 2022-O116に掲載されたものです。
光度グラフはComet for Windowsで作成したものです。

---------------------------------------------------------------------

Copyright(C) Seiichi Yoshida (comet@aerith.net). All rights reserved.